Location: Little Italy
(37.8008°N, 122.4108°W)
Time: 21:42:20
(UTC+00:00)

Cosmos 2098 Rocket - Pass Details

Date: 29 October 2020
Orbit: 366 x 1184 km, 82.9° (Epoch: 24 November)

Event Time Altitude Azimuth Distance (km) Brightness Sun altitude
Rises 13:58:58 0° 197° (SSW) 3,764 7.0 -7.3°
Reaches altitude 10° 14:01:49 10° 202° (SSW) 2,704 6.2 -6.7°
Maximum altitude 14:07:47 52° 278° (W) 1,022 3.8 -5.6°
Drops below altitude 10° 14:12:37 10° 355° (N) 2,179 5.7 -4.6°
Sets 14:14:43 0° 0° (N) 2,978 6.4 -4.2°
